• în Republica Moldova
  • Lista ţărilor
  • Pe 7 zile
  • Temperatura apei
  • Hartă satelitară
  • Meteo pe hartă
  • Widget-uri
  • user-avatar
    Intrare

    Meteo pe oră la Igls

    Astăzi, 29 Mai, Luni

    Timp Temperatura Precipitaţii Vânt Presiune Umiditate
    00:00 +13°C° 0 mm 1 m/s 687 mmHg 85%
    01:00 +13°C° 0 mm 1 m/s 686 mmHg 79%
    02:00 +13°C° 0 mm 1 m/s 686 mmHg 81%
    03:00 +12°C° 0 mm 1 m/s 686 mmHg 82%
    04:00 +12°C° 0 mm 1 m/s 686 mmHg 84%
    05:00 +14°C° 0 mm 1 m/s 686 mmHg 81%
    06:00 +18°C° 0 mm 1 m/s 687 mmHg 77%
    07:00 +21°C° 0 mm 1 m/s 687 mmHg 72%
    08:00 +22°C° 0 mm 1 m/s 687 mmHg 63%
    09:00 +24°C° 0 mm 1 m/s 687 mmHg 55%
    10:00 +26°C° 0 mm 1 m/s 687 mmHg 47%
    11:00 +27°C° 0 mm 1 m/s 687 mmHg 44%
    12:00 +27°C° 0 mm 1 m/s 687 mmHg 42%
    13:00 +28°C° 0 mm 1 m/s 687 mmHg 40%
    14:00 +28°C° 0,1 mm 1 m/s 687 mmHg 42%
    15:00 +27°C° 0,1 mm 1 m/s 686 mmHg 45%
    16:00 +27°C° 0,1 mm 1 m/s 686 mmHg 48%
    17:00 +25°C° 0,2 mm 1 m/s 686 mmHg 59%
    18:00 +23°C° 0,2 mm 1 m/s 685 mmHg 70%
    19:00 +22°C° 0,2 mm 1 m/s 685 mmHg 82%
    20:00 +19°C° 0,3 mm 1 m/s 685 mmHg 85%
    21:00 +16°C° 0,3 mm 1 m/s 684 mmHg 89%
    22:00 +14°C° 0,3 mm 1 m/s 684 mmHg 93%
    23:00 +14°C° 0,5 mm 1 m/s 684 mmHg 92%

    Mâine, 30 Mai, Marţi

    Timp Temperatura Precipitaţii Vânt Presiune Umiditate
    00:00 +14°C° 0,5 mm 1 m/s 684 mmHg 92%
    01:00 +14°C° 0,5 mm 1 m/s 684 mmHg 92%
    02:00 +14°C° 0,2 mm 1 m/s 684 mmHg 92%
    03:00 +13°C° 0,2 mm 1 m/s 684 mmHg 92%
    04:00 +13°C° 0,2 mm 1 m/s 684 mmHg 92%
    05:00 +15°C° 0,1 mm 1 m/s 685 mmHg 89%
    06:00 +18°C° 0,1 mm 1 m/s 685 mmHg 86%
    07:00 +18°C° 0,1 mm 0 m/s 686 mmHg 83%
    08:00 +20°C° 0,4 mm 0 m/s 686 mmHg 77%
    09:00 +23°C° 0,4 mm 1 m/s 686 mmHg 72%
    10:00 +25°C° 0,4 mm 1 m/s 686 mmHg 66%
    11:00 +25°C° 1,1 mm 1 m/s 686 mmHg 68%
    12:00 +25°C° 1,1 mm 1 m/s 686 mmHg 69%
    13:00 +25°C° 1,1 mm 1 m/s 686 mmHg 70%
    14:00 +25°C° 2 mm 1 m/s 686 mmHg 73%
    15:00 +24°C° 2 mm 1 m/s 686 mmHg 77%
    16:00 +23°C° 2 mm 1 m/s 686 mmHg 80%
    17:00 +22°C° 1,6 mm 1 m/s 686 mmHg 84%
    18:00 +21°C° 1,6 mm 1 m/s 686 mmHg 89%
    19:00 +18°C° 1,6 mm 0 m/s 686 mmHg 93%
    20:00 +19°C° 1,5 mm 1 m/s 686 mmHg 94%
    21:00 +18°C° 1,5 mm 1 m/s 686 mmHg 96%
    22:00 +16°C° 1,5 mm 1 m/s 687 mmHg 97%
    23:00 +16°C° 1 mm 1 m/s 687 mmHg 97%

    Poimâine, 31 Mai, Miercuri

    Timp Temperatura Precipitaţii Vânt Presiune Umiditate
    00:00 +16°C° 1 mm 1 m/s 687 mmHg 97%
    01:00 +16°C° 1 mm 1 m/s 687 mmHg 97%
    02:00 +15°C° 0,3 mm 1 m/s 687 mmHg 97%
    03:00 +15°C° 0,3 mm 1 m/s 687 mmHg 97%
    04:00 +14°C° 0,3 mm 1 m/s 687 mmHg 96%
    05:00 +16°C° 0,1 mm 1 m/s 687 mmHg 94%
    06:00 +16°C° 0,1 mm 0 m/s 687 mmHg 93%
    07:00 +17°C° 0,1 mm 0 m/s 688 mmHg 91%
    08:00 +18°C° 0,3 mm 0 m/s 688 mmHg 85%
    09:00 +19°C° 0,3 mm 0 m/s 688 mmHg 80%
    10:00 +23°C° 0,3 mm 1 m/s 688 mmHg 75%
    11:00 +23°C° 0,9 mm 1 m/s 688 mmHg 75%
    12:00 +23°C° 0,9 mm 1 m/s 688 mmHg 75%
    13:00 +24°C° 0,9 mm 1 m/s 688 mmHg 75%
    14:00 +23°C° 1,2 mm 1 m/s 688 mmHg 77%
    15:00 +23°C° 1,2 mm 1 m/s 687 mmHg 78%
    16:00 +23°C° 1,2 mm 1 m/s 687 mmHg 80%
    17:00 +22°C° 1,1 mm 1 m/s 687 mmHg 84%
    18:00 +21°C° 1,1 mm 1 m/s 687 mmHg 89%
    19:00 +18°C° 1,1 mm 0 m/s 687 mmHg 93%
    20:00 +16°C° 1,4 mm 0 m/s 687 mmHg 95%
    21:00 +15°C° 1,4 mm 0 m/s 687 mmHg 96%
    22:00 +13°C° 1,4 mm 0 m/s 687 mmHg 98%
    23:00 +13°C° 0,8 mm 0 m/s 687 mmHg 98%

    1 Iunie, Joi

    Timp Temperatura Precipitaţii Vânt Presiune Umiditate
    00:00 +13°C° 0,8 mm 0 m/s 687 mmHg 98%
    01:00 +13°C° 0,8 mm 0 m/s 687 mmHg 98%
    02:00 +13°C° 0,6 mm 0 m/s 687 mmHg 98%
    03:00 +12°C° 0,6 mm 0 m/s 686 mmHg 98%
    04:00 +12°C° 0,6 mm 0 m/s 686 mmHg 98%
    05:00 +13°C° 0,6 mm 0 m/s 687 mmHg 96%
    06:00 +15°C° 0,6 mm 0 m/s 687 mmHg 94%
    07:00 +16°C° 0,6 mm 0 m/s 688 mmHg 91%
    08:00 +17°C° 0,4 mm 0 m/s 688 mmHg 87%
    09:00 +20°C° 0,4 mm 1 m/s 688 mmHg 83%
    10:00 +21°C° 0,4 mm 1 m/s 688 mmHg 79%
    11:00 +22°C° 0,6 mm 1 m/s 688 mmHg 77%
    12:00 +23°C° 0,6 mm 1 m/s 688 mmHg 75%
    13:00 +23°C° 0,6 mm 1 m/s 688 mmHg 73%
    14:00 +23°C° 0,8 mm 1 m/s 688 mmHg 74%
    15:00 +23°C° 0,8 mm 1 m/s 688 mmHg 75%
    16:00 +22°C° 0,8 mm 1 m/s 688 mmHg 76%
    17:00 +21°C° 0,7 mm 1 m/s 688 mmHg 81%
    18:00 +21°C° 0,7 mm 1 m/s 687 mmHg 86%
    19:00 +20°C° 0,7 mm 1 m/s 687 mmHg 91%
    20:00 +18°C° 0,3 mm 1 m/s 687 mmHg 93%
    21:00 +15°C° 0,3 mm 1 m/s 687 mmHg 95%
    22:00 +13°C° 0,3 mm 1 m/s 687 mmHg 97%
    23:00 +13°C° 0,1 mm 1 m/s 687 mmHg 97%

    2 Iunie, Vineri

    Timp Temperatura Precipitaţii Vânt Presiune Umiditate
    00:00 +13°C° 0,1 mm 1 m/s 687 mmHg 97%
    01:00 +13°C° 0,1 mm 1 m/s 687 mmHg 96%
    02:00 +13°C° 0,1 mm 1 m/s 686 mmHg 96%
    03:00 +13°C° 0,1 mm 1 m/s 686 mmHg 96%
    04:00 +12°C° 0,1 mm 1 m/s 686 mmHg 96%
    05:00 +14°C° 0,1 mm 1 m/s 686 mmHg 92%
    06:00 +16°C° 0,1 mm 1 m/s 687 mmHg 88%
    07:00 +18°C° 0,1 mm 1 m/s 687 mmHg 84%
    08:00 +20°C° 0,1 mm 1 m/s 688 mmHg 74%
    09:00 +22°C° 0,1 mm 1 m/s 688 mmHg 64%
    10:00 +25°C° 0,1 mm 1 m/s 688 mmHg 54%
    11:00 +25°C° 0,4 mm 1 m/s 688 mmHg 56%
    12:00 +25°C° 0,4 mm 1 m/s 687 mmHg 58%
    13:00 +25°C° 0,4 mm 2 m/s 687 mmHg 60%
    14:00 +25°C° 1 mm 1 m/s 687 mmHg 64%
    15:00 +24°C° 1 mm 1 m/s 686 mmHg 68%
    16:00 +24°C° 1 mm 1 m/s 686 mmHg 72%
    17:00 +23°C° 0,6 mm 1 m/s 686 mmHg 78%
    18:00 +22°C° 0,6 mm 1 m/s 686 mmHg 85%
    19:00 +18°C° 0,6 mm 0 m/s 686 mmHg 91%
    20:00 +17°C° 0,3 mm 0 m/s 685 mmHg 93%
    21:00 +16°C° 0,3 mm 1 m/s 685 mmHg 94%
    22:00 +14°C° 0,3 mm 1 m/s 685 mmHg 95%
    23:00 +14°C° 0,1 mm 1 m/s 685 mmHg 95%

    3 Iunie, Sâmbătă

    Timp Temperatura Precipitaţii Vânt Presiune Umiditate
    00:00 +14°C° 0,1 mm 1 m/s 685 mmHg 95%
    01:00 +14°C° 0,1 mm 1 m/s 685 mmHg 95%
    02:00 +13°C° 0 mm 1 m/s 684 mmHg 95%
    03:00 +13°C° 0 mm 1 m/s 684 mmHg 94%
    04:00 +12°C° 0 mm 1 m/s 684 mmHg 94%
    05:00 +14°C° 0 mm 1 m/s 685 mmHg 91%
    06:00 +16°C° 0 mm 1 m/s 685 mmHg 87%
    07:00 +17°C° 0 mm 0 m/s 685 mmHg 84%
    08:00 +19°C° 0,1 mm 0 m/s 686 mmHg 75%
    09:00 +24°C° 0,1 mm 1 m/s 686 mmHg 65%
    10:00 +26°C° 0,1 mm 1 m/s 686 mmHg 56%
    11:00 +26°C° 0,5 mm 1 m/s 686 mmHg 59%
    12:00 +26°C° 0,5 mm 1 m/s 686 mmHg 61%
    13:00 +25°C° 0,5 mm 1 m/s 685 mmHg 64%
    14:00 +25°C° 1,1 mm 1 m/s 685 mmHg 67%
    15:00 +25°C° 1,1 mm 1 m/s 685 mmHg 71%
    16:00 +24°C° 1,1 mm 1 m/s 685 mmHg 74%
    17:00 +23°C° 0,9 mm 1 m/s 684 mmHg 79%
    18:00 +22°C° 0,9 mm 1 m/s 684 mmHg 84%
    19:00 +21°C° 0,9 mm 1 m/s 684 mmHg 88%
    20:00 +20°C° 0,4 mm 1 m/s 684 mmHg 90%
    21:00 +18°C° 0,4 mm 1 m/s 684 mmHg 92%
    22:00 +15°C° 0,4 mm 1 m/s 684 mmHg 94%
    23:00 +15°C° 0,3 mm 1 m/s 684 mmHg 94%
    Arată mai mult